Weather History for Ankeny, IA

Change the Weather History Date:

Saturday, February 9, 2013

  Actual Average (KDSM) Record (KDSM)
Temperature  
Mean Temperature 32 °F 25 °F  
Max Temperature 37 °F 34 °F 61 °F (1976)
Min Temperature 28 °F 17 °F -23 °F (1899)
Degree Days  
Heating Degree Days 32 40  
Month to date heating degree days 365  
Since 1 July heating degree days 4145  
Cooling Degree Days 0 0  
Month to date cooling degree days 0  
Year to date cooling degree days 0  
Moisture  
Dew Point 27 °F    
Average Humidity 83    
Maximum Humidity 87    
Minimum Humidity 75    
Precipitation  
Precipitation 0.00 in 0.05 in 0.62 in (1939)
Month to date precipitation 0.37  
Year to date precipitation 1.37  
Snow  
Snow 0.00 in 0.30 in 6.30 in (1960)
Month to date snowfall 2.9  
Since 1 July snowfall 23.3  
Snow Depth -    
Sea Level Pressure  
Sea Level Pressure 30.07 in    
Wind  
Wind Speed 12 mph (SE)    
Max Wind Speed 18 mph    
Max Gust Speed 23 mph    
Visibility 8 miles    
Events      
T = Trace of Precipitation, MM = Missing Value Source: NWS Daily Summary

Daily Weather History Graph

Daily Weather History Graph

Search for Another Location

Airport:

Trip Planner

Search our weather history database for the weather conditions in past years. The results will help you decide how hot, cold, wet, or windy it might be!

Date:

Astronomy

Feb. 09, 2013 Rise Set
Actual Time 7:17 AM CST 5:40 PM CST
Civil Twilight 6:48 AM CST 6:09 PM CST
Nautical Twilight 6:15 AM CST 6:42 PM CST
Astronomical Twilight 5:43 AM CST 7:14 PM CST
Moon 6:29 AM CST (2/9) 5:24 PM CST (2/9)
Length of Visible Light 11h 21m
Length of Day
10h 23m
Waning Crescent, 0% of the Moon is Illuminated
Feb 9
Waning Crescent
Feb 10
New
Feb 17
First Quarter
Feb 25
Full
Mar 4
Last Quarter

Hourly Weather History & Observations

Time (CST) Temp. Windchill Dew Point Humidity Pressure Visibility Wind Dir Wind Speed Gust Speed Precip Events Conditions
12:15 AM 28.4 °F 18.5 °F 24.8 °F 86% 30.24 in 10.0 mi SSE 11.5 mph 18.4 mph N/A   Overcast
12:35 AM 28.4 °F 19.1 °F 24.8 °F 86% 30.24 in 10.0 mi SSE 10.4 mph - N/A   Overcast
12:55 AM 28.4 °F 18.5 °F 24.8 °F 86% 30.24 in 10.0 mi SSE 11.5 mph - N/A   Overcast
1:15 AM 28.4 °F 19.7 °F 24.8 °F 86% 30.24 in 10.0 mi SSE 9.2 mph - N/A   Overcast
1:35 AM 28.4 °F 18.5 °F 24.8 °F 86% 30.24 in 10.0 mi SSE 11.5 mph - N/A   Overcast
1:55 AM 28.4 °F 18.5 °F 24.8 °F 86% 30.25 in 10.0 mi South 11.5 mph - N/A   Overcast
2:15 AM 28.4 °F 19.7 °F 24.8 °F 86% 30.25 in 10.0 mi South 9.2 mph - N/A   Overcast
2:35 AM 28.4 °F 18.5 °F 24.8 °F 86% 30.25 in 10.0 mi South 11.5 mph - N/A   Overcast
2:55 AM 28.4 °F 18.0 °F 24.8 °F 86% 30.23 in 10.0 mi SSE 12.7 mph - N/A   Overcast
3:15 AM 28.4 °F 19.1 °F 24.8 °F 86% 30.23 in 10.0 mi South 10.4 mph - N/A   Overcast
3:35 AM 28.4 °F 19.7 °F 24.8 °F 86% 30.22 in 10.0 mi SSE 9.2 mph - N/A   Overcast
3:55 AM 28.4 °F 18.5 °F 24.8 °F 86% 30.22 in 10.0 mi SSE 11.5 mph - N/A   Overcast
4:15 AM 28.4 °F 19.1 °F 24.8 °F 86% 30.21 in 10.0 mi SSE 10.4 mph - N/A   Overcast
4:35 AM 28.4 °F 18.0 °F 24.8 °F 86% 30.20 in 10.0 mi SSE 12.7 mph - N/A   Overcast
4:55 AM 28.4 °F 19.1 °F 24.8 °F 86% 30.20 in 10.0 mi SSE 10.4 mph - N/A   Overcast
5:15 AM 28.4 °F 17.5 °F 24.8 °F 86% 30.19 in 10.0 mi SSE 13.8 mph - N/A   Overcast
5:35 AM 28.4 °F 17.5 °F 24.8 °F 86% 30.18 in 10.0 mi SSE 13.8 mph - N/A   Overcast
5:55 AM 28.4 °F 18.5 °F 24.8 °F 86% 30.19 in 10.0 mi SSE 11.5 mph - N/A   Overcast
6:15 AM 28.4 °F 17.5 °F 24.8 °F 86% 30.18 in 10.0 mi SE 13.8 mph 17.3 mph N/A   Overcast
6:35 AM 28.4 °F 18.5 °F 24.8 °F 86% 30.17 in 10.0 mi SSE 11.5 mph - N/A   Overcast
6:55 AM 28.4 °F 18.5 °F 24.8 °F 86% 30.17 in 10.0 mi SSE 11.5 mph - N/A   Overcast
7:15 AM 28.4 °F 18.0 °F 24.8 °F 86% 30.17 in 10.0 mi SSE 12.7 mph - N/A   Overcast
7:35 AM 28.4 °F 17.5 °F 24.8 °F 86% 30.17 in 7.0 mi SE 13.8 mph 20.7 mph N/A   Overcast
7:55 AM 28.4 °F 16.6 °F 24.8 °F 86% 30.16 in 7.0 mi SE 16.1 mph - N/A   Overcast
8:15 AM 28.4 °F 18.0 °F 24.8 °F 86% 30.17 in 7.0 mi SSE 12.7 mph - N/A   Overcast
8:35 AM 30.2 °F 18.9 °F 26.6 °F 86% 30.16 in 7.0 mi SSE 16.1 mph - N/A   Overcast
8:55 AM 30.2 °F 19.3 °F 26.6 °F 86% 30.16 in 5.0 mi SSE 15.0 mph 23.0 mph N/A   Overcast
9:15 AM 30.2 °F 19.3 °F 26.6 °F 86% 30.16 in 5.0 mi SSE 15.0 mph - N/A   Overcast
9:35 AM 30.2 °F 19.3 °F 26.6 °F 86% 30.15 in 5.0 mi SSE 15.0 mph 21.9 mph N/A   Overcast
9:55 AM 30.2 °F 19.8 °F 26.6 °F 86% 30.16 in 5.0 mi SSE 13.8 mph - N/A   Overcast
10:15 AM 30.2 °F 19.3 °F 26.6 °F 86% 30.14 in 7.0 mi SSE 15.0 mph - N/A   Overcast
10:35 AM 32.0 °F 21.6 °F 26.6 °F 80% 30.14 in 7.0 mi SSE 15.0 mph - N/A   Overcast
10:55 AM 32.0 °F 21.6 °F 26.6 °F 80% 30.14 in 7.0 mi SSE 15.0 mph 20.7 mph N/A   Overcast
11:15 AM 32.0 °F 20.8 °F 28.4 °F 87% 30.13 in 7.0 mi SSE 17.3 mph - N/A   Overcast
11:35 AM 33.8 °F 23.9 °F 28.4 °F 81% 30.12 in 7.0 mi SSE 15.0 mph 20.7 mph N/A   Overcast
11:55 AM 33.8 °F 23.9 °F 28.4 °F 81% 30.11 in 7.0 mi SSE 15.0 mph - N/A   Overcast
12:15 PM 33.8 °F 22.8 °F 28.4 °F 81% 30.10 in 7.0 mi South 18.4 mph - N/A   Overcast
12:35 PM 33.8 °F 23.9 °F 28.4 °F 81% 30.09 in 7.0 mi SSE 15.0 mph - N/A   Overcast
12:55 PM 33.8 °F 23.2 °F 28.4 °F 81% 30.07 in 7.0 mi SSE 17.3 mph 23.0 mph N/A   Overcast
1:15 PM 35.6 °F 27.1 °F 28.4 °F 75% 30.06 in 7.0 mi SSE 12.7 mph 21.9 mph N/A   Overcast
1:35 PM 33.8 °F 24.3 °F 28.4 °F 81% 30.05 in 7.0 mi SSE 13.8 mph 21.9 mph N/A   Overcast
1:55 PM 35.6 °F 25.9 °F 28.4 °F 75% 30.04 in 7.0 mi SSE 16.1 mph - N/A   Overcast
2:15 PM 35.6 °F 27.5 °F 30.2 °F 81% 30.02 in 7.0 mi SSE 11.5 mph - N/A   Overcast
2:35 PM 35.6 °F 26.6 °F 30.2 °F 81% 30.01 in 7.0 mi SE 13.8 mph - N/A   Overcast
2:55 PM 35.6 °F 26.6 °F 30.2 °F 81% 30.00 in 7.0 mi SE 13.8 mph - N/A   Overcast
3:15 PM 35.6 °F 25.5 °F 30.2 °F 81% 29.99 in 7.0 mi SSE 17.3 mph - N/A   Overcast
3:35 PM 37.4 °F 29.3 °F 30.2 °F 75% 29.97 in 10.0 mi SE 12.7 mph - N/A   Mostly Cloudy
3:55 PM 37.4 °F 28.9 °F 30.2 °F 75% 29.96 in 10.0 mi SE 13.8 mph - N/A   Scattered Clouds
4:15 PM 37.4 °F 28.5 °F 30.2 °F 75% 29.95 in 10.0 mi SE 15.0 mph 18.4 mph N/A   Clear
4:35 PM 37.4 °F 30.8 °F 30.2 °F 75% 29.95 in 10.0 mi ESE 9.2 mph - N/A   Clear
4:55 PM 37.4 °F 28.9 °F 30.2 °F 75% 29.94 in 10.0 mi SE 13.8 mph - N/A   Clear
5:15 PM 35.6 °F 27.5 °F 28.4 °F 75% 29.94 in 10.0 mi SE 11.5 mph 17.3 mph N/A   Clear
5:35 PM 35.6 °F 28.6 °F 28.4 °F 75% 29.94 in 10.0 mi SE 9.2 mph - N/A   Clear
5:55 PM 33.8 °F 25.8 °F 28.4 °F 81% 29.94 in 10.0 mi SE 10.4 mph - N/A   Clear
6:15 PM 33.8 °F 25.3 °F 28.4 °F 81% 29.94 in 7.0 mi SE 11.5 mph - N/A   Clear
6:35 PM 33.8 °F 27.0 °F 28.4 °F 81% 29.93 in 7.0 mi SE 8.1 mph - N/A   Clear
6:55 PM 32.0 °F 24.8 °F 28.4 °F 87% 29.94 in 7.0 mi SE 8.1 mph - N/A   Clear
7:35 PM 33.8 °F 25.3 °F 28.4 °F 81% 29.93 in 7.0 mi SE 11.5 mph - N/A   Clear
7:55 PM 33.8 °F 25.3 °F 28.4 °F 81% 29.92 in 7.0 mi SE 11.5 mph - N/A   Clear
8:15 PM 33.8 °F 26.4 °F 28.4 °F 81% 29.92 in 10.0 mi SE 9.2 mph - N/A   Scattered Clouds
8:35 PM 33.8 °F 25.8 °F 28.4 °F 81% 29.91 in 10.0 mi SE 10.4 mph - N/A   Scattered Clouds
8:55 PM 33.8 °F 26.4 °F 28.4 °F 81% 29.89 in 10.0 mi ESE 9.2 mph - N/A   Clear
9:15 PM 33.8 °F 24.8 °F 28.4 °F 81% 29.88 in 10.0 mi ESE 12.7 mph - N/A   Scattered Clouds
9:35 PM 33.8 °F 25.3 °F 28.4 °F 81% 29.88 in 10.0 mi SE 11.5 mph - N/A   Mostly Cloudy
9:55 PM 33.8 °F 25.8 °F 28.4 °F 81% 29.87 in 10.0 mi SE 10.4 mph - N/A   Mostly Cloudy
10:15 PM 33.8 °F 25.8 °F 28.4 °F 81% 29.88 in 10.0 mi SE 10.4 mph - N/A   Scattered Clouds
10:35 PM 33.8 °F 25.8 °F 28.4 °F 81% 29.88 in 7.0 mi SE 10.4 mph - N/A   Mostly Cloudy
10:55 PM 33.8 °F 26.4 °F 28.4 °F 81% 29.87 in 7.0 mi SE 9.2 mph - N/A   Overcast
11:15 PM 33.8 °F 26.4 °F 28.4 °F 81% 29.87 in 5.0 mi SE 9.2 mph - N/A   Overcast
11:35 PM 33.8 °F 26.4 °F 28.4 °F 81% 29.85 in 2.5 mi SE 9.2 mph - N/A   Overcast
11:55 PM 32.0 °F 24.2 °F 28.4 °F 87% 29.84 in 3.0 mi ESE 9.2 mph - N/A   Overcast